User: anonymous
Location: Cimarron National Grasslands
(37.1250°N, 101.7500°W)
Time: 19:26:12
(UTC-05:00)
Language:

Ariane Rocket - Orbit

View from above orbital plane
View from above orbital plane
View from above satellite
View from above satellite

Ground track
Ground track

The orbit data is extracted from the following two-line orbital elements,

1 23561U 95021B   14264.98936346  .00000271  00000-0  10598-3 0  8736
2 23561 098.6943 232.1348 0006528 347.7655 056.1879 14.37321429 17683
Epoch (UTC): 21 September 2014 23:44:41
Eccentricity: 0.0006528
inclination: 98.6943°
perigee height: 763 km
apogee height: 772 km
right ascension of ascending node: 232.1348°
argument of perigee: 347.7655°
revolutions per day: 14.37321429
mean anomaly at epoch: 56.1879°
orbit number at epoch: 1768

The dashed part of the orbit path shows where the satellite is in the earth's shadow,  

DLR